| time (UTC) | temp F | wind direction | speed MPH | gust MPH | rain 1hr in | rain 24hr in | rain mn in | humidity % | barometer mb |
| 20260504033151 | 46 | 276 | 6.0 | 6.0 | 0.00 | 0.00 | 0.00 | 63 | 1018.1 |
| 20260504032651 | 46 | 318 | 4.0 | 5.0 | 0.00 | 0.00 | 0.00 | 66 | 1018.1 |
| 20260504032139 | 46 | 330 | 6.0 | 6.0 | 0.00 | 0.00 | 0.00 | 66 | 1018.1 |
| 20260504031639 | 46 | 318 | 2.0 | 2.0 | 0.00 | 0.00 | 0.00 | 65 | 1018.1 |
| 20260504031127 | 45 | 324 | 2.0 | 2.0 | 0.00 | 0.00 | 0.00 | 67 | 1018.1 |
| 20260504030626 | 45 | 37 | 0.0 | 0.0 | 0.00 | 0.00 | 0.00 | 68 | 1018.1 |
| 20260504030114 | 45 | 300 | 2.0 | 2.0 | 0.00 | 0.00 | 0.00 | 70 | 1018.2 |
| 20260504025613 | 46 | 84 | 0.0 | 0.0 | 0.00 | 0.00 | 0.00 | 66 | 1018.1 |
| 20260504025101 | 46 | 306 | 2.0 | 2.0 | 0.00 | 0.00 | 0.00 | 64 | 1018.1 |
| 20260504024601 | 45 | 282 | 2.0 | 2.0 | 0.00 | 0.00 | 0.00 | 65 | 1018.0 |
| 20260504024048 | 44 | 264 | 2.0 | 2.0 | 0.00 | 0.00 | 0.00 | 68 | 1018.0 |
| 20260504023549 | 42 | 276 | 3.0 | 3.0 | 0.00 | 0.00 | 0.00 | 68 | 1018.0 |
| 20260504023036 | 43 | 318 | 2.0 | 2.0 | 0.00 | 0.00 | 0.00 | 73 | 1018.0 |
| 20260504022536 | 43 | 306 | 2.0 | 2.0 | 0.00 | 0.00 | 0.00 | 72 | 1018.0 |
| 20260504022023 | 43 | 312 | 0.0 | 0.0 | 0.00 | 0.00 | 0.00 | 72 | 1018.0 |
| 20260504021524 | 44 | 312 | 0.0 | 0.0 | 0.00 | 0.00 | 0.00 | 70 | 1018.0 |
| 20260504021011 | 44 | 72 | 2.0 | 2.0 | 0.00 | 0.00 | 0.00 | 68 | 1018.1 |
| 20260504020511 | 43 | 306 | 0.0 | 0.0 | 0.00 | 0.00 | 0.00 | 73 | 1018.1 |
| 20260504020011 | 42 | 306 | 2.0 | 2.0 | 0.00 | 0.00 | 0.00 | 71 | 1018.1 |
| 20260504015512 | 42 | 306 | 2.0 | 2.0 | 0.00 | 0.00 | 0.00 | 75 | 1018.1 |
| 20260504015011 | 42 | 306 | 2.0 | 2.0 | 0.00 | 0.00 | 0.00 | 78 | 1018.2 |
| 20260504014511 | 43 | 306 | 3.0 | 3.0 | 0.00 | 0.00 | 0.00 | 74 | 1018.2 |
| 20260504014010 | 46 | 294 | 2.0 | 2.0 | 0.00 | 0.00 | 0.00 | 66 | 1018.2 |
| 20260504013458 | 44 | 276 | 5.0 | 5.0 | 0.00 | 0.00 | 0.00 | 67 | 1018.2 |
| 20260504012958 | 44 | 300 | 4.0 | 4.0 | 0.00 | 0.00 | 0.00 | 71 | 1018.2 |
| 20260504012445 | 43 | 312 | 4.0 | 4.0 | 0.00 | 0.00 | 0.00 | 75 | 1018.2 |
| 20260504011946 | 42 | 318 | 4.0 | 4.0 | 0.00 | 0.00 | 0.00 | 77 | 1018.1 |
| 20260504011434 | 43 | 318 | 2.0 | 2.0 | 0.00 | 0.00 | 0.00 | 78 | 1018.1 |
| 20260504010933 | 42 | 318 | 4.0 | 4.0 | 0.00 | 0.00 | 0.00 | 78 | 1018.0 |
| 20260504010421 | 42 | 318 | 4.0 | 4.0 | 0.00 | 0.00 | 0.00 | 80 | 1018.0 |
| 20260504005920 | 42 | 312 | 4.0 | 4.0 | 0.00 | 0.00 | 0.00 | 79 | 1018.1 |
| 20260504005420 | 42 | 306 | 4.0 | 4.0 | 0.00 | 0.00 | 0.00 | 79 | 1018.0 |
| 20260504004920 | 42 | 318 | 2.0 | 2.0 | 0.00 | 0.00 | 0.00 | 79 | 1018.0 |
| 20260504004421 | 42 | 318 | 2.0 | 2.0 | 0.00 | 0.00 | 0.00 | 78 | 1018.0 |
| 20260504003920 | 43 | 318 | 3.0 | 3.0 | 0.00 | 0.00 | 0.00 | 76 | 1018.0 |
| 20260504003407 | 43 | 318 | 4.0 | 4.0 | 0.00 | 0.00 | 0.00 | 76 | 1018.0 |
| 20260504002907 | 42 | 318 | 2.0 | 2.0 | 0.00 | 0.00 | 0.00 | 78 | 1018.0 |
| 20260504002407 | 43 | 318 | 2.0 | 2.0 | 0.00 | 0.00 | 0.00 | 79 | 1017.9 |
| 20260504001907 | 43 | 312 | 3.0 | 3.0 | 0.00 | 0.00 | 0.00 | 77 | 1018.0 |
| 20260504001408 | 43 | 312 | 4.0 | 4.0 | 0.00 | 0.00 | 0.00 | 77 | 1018.0 |
| 20260504000907 | 43 | 312 | 5.0 | 5.0 | 0.00 | 0.00 | 0.00 | 76 | 1018.0 |
| 20260504000408 | 43 | 318 | 4.0 | 5.0 | 0.00 | 0.00 | 0.00 | 75 | 1017.9 |
| 20260503235855 | 43 | 312 | 4.0 | 4.0 | 0.00 | 0.00 | 0.00 | 75 | 1017.9 |
| 20260503235343 | 43 | 312 | 4.0 | 4.0 | 0.00 | 0.00 | 0.00 | 75 | 1017.9 |
| 20260503234842 | 43 | 312 | 3.0 | 3.0 | 0.00 | 0.00 | 0.00 | 75 | 1017.9 |
| 20260503234330 | 44 | 312 | 2.0 | 2.0 | 0.00 | 0.00 | 0.00 | 73 | 1017.9 |
| 20260503233830 | 44 | 312 | 2.0 | 2.0 | 0.00 | 0.00 | 0.00 | 71 | 1018.0 |
| 20260503233317 | 44 | 288 | 0.0 | 0.0 | 0.00 | 0.00 | 0.00 | 74 | 1017.9 |
| 20260503232818 | 45 | 288 | 2.0 | 2.0 | 0.00 | 0.00 | 0.00 | 73 | 1017.9 |
| 20260503232306 | 45 | 288 | 0.0 | 0.0 | 0.00 | 0.00 | 0.00 | 71 | 1018.0 |
| 20260503231804 | 44 | 306 | 2.0 | 2.0 | 0.00 | 0.00 | 0.00 | 74 | 1017.9 |
| 20260503231252 | 46 | 324 | 4.0 | 4.0 | 0.00 | 0.00 | 0.00 | 69 | 1017.8 |
| 20260503230752 | 46 | 324 | 4.0 | 5.0 | 0.00 | 0.00 | 0.00 | 67 | 1017.9 |
| 20260503230240 | 45 | 318 | 4.0 | 4.0 | 0.00 | 0.00 | 0.00 | 70 | 1017.9 |
| 20260503225740 | 45 | 312 | 4.0 | 4.0 | 0.00 | 0.00 | 0.00 | 70 | 1018.0 |
| 20260503225227 | 46 | 318 | 4.0 | 4.0 | 0.00 | 0.00 | 0.00 | 67 | 1018.0 |
| 20260503224727 | 46 | 294 | 4.0 | 4.0 | 0.00 | 0.00 | 0.00 | 66 | 1018.1 |
| 20260503224215 | 45 | 306 | 2.0 | 2.0 | 0.00 | 0.00 | 0.00 | 68 | 1018.1 |
| 20260503223715 | 46 | 318 | 3.0 | 3.0 | 0.00 | 0.00 | 0.00 | 70 | 1018.1 |
| 20260503223202 | 47 | 300 | 4.0 | 4.0 | 0.00 | 0.00 | 0.00 | 63 | 1018.1 |
| 20260503222702 | 47 | 318 | 2.0 | 2.0 | 0.00 | 0.00 | 0.00 | 63 | 1018.2 |
| 20260503222150 | 47 | 270 | 0.0 | 0.0 | 0.00 | 0.00 | 0.00 | 66 | 1018.2 |
| 20260503221650 | 47 | 270 | 0.0 | 0.0 | 0.00 | 0.00 | 0.00 | 63 | 1018.1 |
| 20260503221138 | 48 | 300 | 2.0 | 2.0 | 0.00 | 0.00 | 0.00 | 63 | 1018.0 |
| 20260503220638 | 48 | 300 | 4.0 | 4.0 | 0.00 | 0.00 | 0.00 | 61 | 1018.0 |
| 20260503220126 | 48 | 300 | 6.0 | 7.0 | 0.00 | 0.00 | 0.00 | 60 | 1018.1 |
| 20260503215625 | 47 | 288 | 4.0 | 5.0 | 0.00 | 0.00 | 0.00 | 62 | 1018.1 |
| 20260503215112 | 48 | 294 | 3.0 | 3.0 | 0.00 | 0.00 | 0.00 | 63 | 1018.1 |
| 20260503214612 | 47 | 276 | 2.0 | 2.0 | 0.00 | 0.00 | 0.00 | 60 | 1018.2 |
| 20260503214100 | 47 | 288 | 0.0 | 0.0 | 0.00 | 0.00 | 0.00 | 65 | 1018.1 |
| 20260503213608 | 47 | 300 | 3.0 | 3.0 | 0.00 | 0.00 | 0.00 | 63 | 1018.1 |
| 20260503213047 | 48 | 306 | 4.0 | 4.0 | 0.00 | 0.00 | 0.00 | 62 | 1018.1 |
| 20260503212547 | 47 | 306 | 4.0 | 4.0 | 0.00 | 0.00 | 0.00 | 62 | 1018.1 |
| 20260503212035 | 46 | 270 | 5.0 | 5.0 | 0.00 | 0.00 | 0.00 | 63 | 1018.2 |
| 20260503211536 | 44 | 312 | 5.0 | 5.0 | 0.00 | 0.00 | 0.00 | 73 | 1018.2 |
| 20260503211023 | 44 | 324 | 2.0 | 2.0 | 0.00 | 0.00 | 0.00 | 77 | 1018.1 |
| 20260503210523 | 44 | 324 | 2.0 | 2.0 | 0.00 | 0.00 | 0.00 | 77 | 1018.2 |
| 20260503210010 | 45 | 324 | 2.0 | 2.0 | 0.00 | 0.00 | 0.00 | 76 | 1018.2 |
| 20260503205458 | 45 | 318 | 2.0 | 2.0 | 0.00 | 0.57 | 0.00 | 72 | 1018.2 |
| 20260503204957 | 45 | 312 | 2.0 | 2.0 | 0.00 | 0.57 | 0.00 | 74 | 1018.2 |
| 20260503204445 | 45 | 312 | 4.0 | 4.0 | 0.00 | 0.57 | 0.00 | 72 | 1018.2 |
| 20260503203945 | 44 | 312 | 0.0 | 0.0 | 0.00 | 0.57 | 0.00 | 74 | 1018.3 |
| 20260503203445 | 45 | 312 | 3.0 | 3.0 | 0.00 | 0.57 | 0.00 | 73 | 1018.2 |
| 20260503202946 | 45 | 318 | 3.0 | 3.0 | 0.00 | 0.57 | 0.00 | 74 | 1018.2 |
| 20260503202445 | 44 | 312 | 4.0 | 4.0 | 0.00 | 0.57 | 0.00 | 75 | 1018.2 |
| 20260503201945 | 45 | 324 | 2.0 | 2.0 | 0.00 | 0.57 | 0.00 | 75 | 1018.2 |
| 20260503201444 | 46 | 347 | 2.0 | 2.0 | 0.00 | 0.57 | 0.00 | 72 | 1018.3 |
| 20260503200947 | 46 | 347 | 2.0 | 2.0 | 0.00 | 0.57 | 0.00 | 65 | 1018.4 |
| 20260503200433 | 46 | 318 | 2.0 | 2.0 | 0.00 | 0.57 | 0.00 | 69 | 1018.4 |
| 20260503195932 | 47 | 312 | 4.0 | 4.0 | 0.00 | 0.57 | 0.00 | 69 | 1018.4 |
| 20260503195432 | 47 | 312 | 3.0 | 3.0 | 0.00 | 0.57 | 0.00 | 67 | 1018.4 |
| 20260503194932 | 46 | 294 | 3.0 | 3.0 | 0.00 | 0.57 | 0.00 | 66 | 1018.4 |
| 20260503194433 | 46 | 318 | 5.0 | 5.0 | 0.00 | 0.57 | 0.00 | 73 | 1018.4 |
| 20260503193920 | 45 | 318 | 4.0 | 5.0 | 0.00 | 0.57 | 0.00 | 72 | 1018.4 |
| 20260503193419 | 45 | 318 | 2.0 | 2.0 | 0.00 | 0.57 | 0.00 | 76 | 1018.4 |
| 20260503192919 | 45 | 318 | 2.0 | 2.0 | 0.00 | 0.57 | 0.00 | 77 | 1018.5 |
| 20260503192419 | 45 | 318 | 3.0 | 3.0 | 0.00 | 0.57 | 0.00 | 72 | 1018.4 |
| 20260503191919 | 45 | 312 | 4.0 | 4.0 | 0.00 | 0.57 | 0.00 | 75 | 1018.4 |
| 20260503191420 | 45 | 312 | 3.0 | 3.0 | 0.00 | 0.57 | 0.00 | 77 | 1018.4 |
| 20260503190907 | 45 | 312 | 2.0 | 2.0 | 0.00 | 0.57 | 0.00 | 77 | 1018.5 |
| 20260503190406 | 46 | 312 | 2.0 | 2.0 | 0.00 | 0.57 | 0.00 | 74 | 1018.4 |
| 20260503185854 | 46 | 306 | 4.0 | 4.0 | 0.00 | 0.57 | 0.00 | 74 | 1018.4 |
| 20260503185354 | 47 | 318 | 3.0 | 3.0 | 0.00 | 0.57 | 0.00 | 72 | 1018.4 |
| 20260503184841 | 47 | 306 | 3.0 | 3.0 | 0.00 | 0.57 | 0.00 | 71 | 1018.3 |
| 20260503184341 | 47 | 348 | 2.0 | 2.0 | 0.00 | 0.57 | 0.00 | 75 | 1018.3 |
| 20260503183829 | 47 | 300 | 2.0 | 2.0 | 0.00 | 0.57 | 0.00 | 70 | 1018.3 |
| 20260503183329 | 47 | 276 | 2.0 | 2.0 | 0.00 | 0.57 | 0.00 | 73 | 1018.2 |
| 20260503182817 | 47 | 276 | 2.0 | 2.0 | 0.00 | 0.57 | 0.00 | 70 | 1018.2 |
| 20260503182316 | 47 | 276 | 0.0 | 0.0 | 0.00 | 0.57 | 0.00 | 66 | 1018.1 |
| 20260503181804 | 47 | 276 | 0.0 | 0.0 | 0.00 | 0.57 | 0.00 | 71 | 1018.1 |
| 20260503181305 | 48 | 276 | 0.0 | 0.0 | 0.00 | 0.57 | 0.00 | 69 | 1018.1 |
| 20260503180752 | 48 | 276 | 2.0 | 2.0 | 0.00 | 0.57 | 0.00 | 65 | 1018.1 |
| 20260503180251 | 48 | 336 | 2.0 | 2.0 | 0.00 | 0.57 | 0.00 | 66 | 1018.0 |
| 20260503175739 | 48 | 324 | 2.0 | 2.0 | 0.00 | 0.57 | 0.00 | 66 | 1017.9 |
| 20260503175240 | 48 | 312 | 0.0 | 0.0 | 0.00 | 0.57 | 0.00 | 67 | 1017.8 |
| 20260503174740 | 49 | 312 | 3.0 | 3.0 | 0.00 | 0.57 | 0.00 | 66 | 1017.7 |
| 20260503174239 | 49 | 306 | 2.0 | 2.0 | 0.00 | 0.57 | 0.00 | 65 | 1017.7 |
| 20260503173739 | 49 | 318 | 2.0 | 2.0 | 0.00 | 0.57 | 0.00 | 64 | 1017.7 |
| 20260503173239 | 49 | 306 | 4.0 | 4.0 | 0.00 | 0.57 | 0.00 | 65 | 1017.6 |
| 20260503172726 | 50 | 318 | 2.0 | 2.0 | 0.00 | 0.57 | 0.00 | 63 | 1017.5 |
| 20260503172225 | 50 | 312 | 4.0 | 4.0 | 0.00 | 0.57 | 0.00 | 65 | 1017.5 |
| 20260503171714 | 51 | 312 | 4.0 | 4.0 | 0.00 | 0.57 | 0.00 | 64 | 1017.4 |
| 20260503171203 | 51 | 330 | 2.0 | 2.0 | 0.00 | 0.57 | 0.00 | 57 | 1017.2 |
| 20260503170650 | 52 | 318 | 3.0 | 3.0 | 0.00 | 0.57 | 0.00 | 59 | 1017.2 |
| 20260503170148 | 52 | 330 | 2.0 | 2.0 | 0.00 | 0.57 | 0.00 | 59 | 1017.2 |
| 20260503150942 | 60 | 288 | 3.0 | 3.0 | 0.00 | 0.57 | 0.00 | 42 | 1017.1 |
| 20260503150444 | 60 | 198 | 5.0 | 6.0 | 0.00 | 0.57 | 0.00 | 41 | 1017.1 |
| 20260503131249 | 56 | 252 | 2.0 | 2.0 | 0.00 | 0.57 | 0.00 | 48 | 1017.7 |
| 20260503130750 | 56 | 162 | 5.0 | 5.0 | 0.00 | 0.57 | 0.00 | 51 | 1017.7 |
| 20260503130249 | 56 | 216 | 6.0 | 6.0 | 0.00 | 0.57 | 0.00 | 51 | 1017.8 |
| 20260503120146 | 54 | 234 | 6.0 | 6.0 | 0.00 | 0.57 | 0.00 | 59 | 1018.1 |
| 20260503110544 | 52 | 303 | 9.0 | 11.0 | 0.00 | 0.57 | 0.00 | 62 | 1018.3 |
| 20260503090146 | 46 | 282 | 4.0 | 5.0 | 0.09 | 0.56 | 0.00 | 88 | 1018.6 |
| 20260503081234 | 45 | 282 | 4.0 | 5.0 | 0.12 | 0.51 | 0.00 | 88 | 1018.7 |
| 20260503080734 | 44 | 282 | 5.0 | 5.0 | 0.21 | 0.50 | 0.00 | 88 | 1018.7 |
| 20260503080222 | 45 | 312 | 6.0 | 7.0 | 0.21 | 0.50 | 0.00 | 89 | 1018.8 |
| 20260503072645 | 45 | 294 | 9.0 | 9.0 | 0.39 | 0.35 | 0.00 | 86 | 1018.3 |
| 20260503072132 | 45 | 282 | 8.0 | 8.0 | 0.55 | 0.31 | 0.00 | 87 | 1018.4 |
| 20260503071631 | 46 | 306 | 5.0 | 5.0 | 0.21 | 0.27 | 0.00 | 87 | 1018.1 |
| 20260503071119 | 46 | 288 | 4.0 | 5.0 | 0.18 | 0.26 | 0.00 | 85 | 1017.9 |
| 20260503070619 | 46 | 282 | 7.0 | 7.0 | 0.19 | 0.24 | 0.00 | 85 | 1017.7 |
| 20260503070107 | 46 | 282 | 8.0 | 8.0 | 0.21 | 0.21 | 0.00 | 85 | 1017.6 |
| 20260503055004 | 51 | 288 | 0.0 | 0.0 | 0.00 | 0.13 | 0.00 | 73 | 1016.7 |
| 20260503054451 | 51 | 174 | 2.0 | 2.0 | 0.00 | 0.13 | 0.00 | 73 | 1016.6 |
| 20260503053952 | 51 | 204 | 2.0 | 2.0 | 0.00 | 0.13 | 0.00 | 74 | 1016.6 |
| 20260503053452 | 50 | 132 | 2.0 | 2.0 | 0.00 | 0.13 | 0.00 | 78 | 1016.6 |
| 20260503052952 | 50 | 126 | 2.0 | 2.0 | 0.00 | 0.13 | 0.00 | 80 | 1016.6 |
| 20260503052451 | 50 | 162 | 2.0 | 2.0 | 0.00 | 0.13 | 0.00 | 79 | 1016.6 |
| 20260503051951 | 48 | 150 | 0.0 | 0.0 | 0.00 | 0.13 | 0.00 | 82 | 1016.5 |
| 20260503051438 | 48 | 108 | 2.0 | 2.0 | 0.00 | 0.13 | 0.00 | 83 | 1016.5 |
| 20260503050938 | 47 | 102 | 2.0 | 2.0 | 0.00 | 0.13 | 0.00 | 82 | 1016.5 |
| 20260503050426 | 47 | 270 | 2.0 | 2.0 | 0.00 | 0.13 | 0.00 | 86 | 1016.5 |
| 20260503045926 | 47 | 120 | 2.0 | 2.0 | 0.00 | 0.13 | 0.00 | 85 | 1016.5 |
| 20260503045414 | 47 | 66 | 2.0 | 2.0 | 0.00 | 0.13 | 0.00 | 84 | 1016.5 |
| 20260503044902 | 47 | 84 | 2.0 | 2.0 | 0.00 | 0.13 | 0.00 | 83 | 1016.5 |
| 20260503044401 | 47 | 282 | 0.0 | 0.0 | 0.00 | 0.13 | 0.00 | 84 | 1016.5 |
| 20260503043848 | 47 | 228 | 4.0 | 4.0 | 0.00 | 0.13 | 0.00 | 85 | 1016.5 |
| 20260503043348 | 46 | 228 | 2.0 | 2.0 | 0.00 | 0.13 | 0.00 | 87 | 1016.5 |
| 20260503042836 | 46 | 282 | 2.0 | 2.0 | 0.00 | 0.13 | 0.00 | 89 | 1016.6 |
| 20260503042336 | 46 | 234 | 2.0 | 2.0 | 0.00 | 0.13 | 0.00 | 90 | 1016.6 |
| 20260503041823 | 46 | 192 | 2.0 | 2.0 | 0.00 | 0.13 | 0.00 | 90 | 1016.6 |
| 20260503041324 | 46 | 180 | 2.0 | 2.0 | 0.00 | 0.13 | 0.00 | 90 | 1016.7 |
| 20260503040812 | 46 | 198 | 2.0 | 2.0 | 0.00 | 0.13 | 0.00 | 90 | 1016.7 |
| 20260503040310 | 46 | 168 | 2.0 | 2.0 | 0.00 | 0.13 | 0.00 | 90 | 1016.8 |
| 20260503035758 | 46 | 192 | 2.0 | 2.0 | 0.00 | 0.13 | 0.00 | 90 | 1016.8 |
| 20260503035258 | 46 | 216 | 2.0 | 2.0 | 0.00 | 0.13 | 0.00 | 90 | 1016.7 |
| 20260503034746 | 46 | 252 | 0.0 | 0.0 | 0.07 | 0.13 | 0.00 | 90 | 1016.8 |
| 20260503034246 | 46 | 216 | 2.0 | 2.0 | 0.07 | 0.13 | 0.00 | 90 | 1016.7 |
| 20260503033733 | 46 | 240 | 2.0 | 2.0 | 0.07 | 0.13 | 0.00 | 89 | 1016.7 |